Regional Weather Roundup
Issued by NWS Upton, NY

Current Version | Previous Version | Text Only | Print | Product List | Glossary Off
Versions: 1 2 3 4 5 6 7 8 9 10 11 12 13 14 15 16 17 18 19 20 21 22 23 24 25 26 27 28 29 30 31 32 33 34 35 36 37 38 39 40 41 42 43 44 45 46 47 48 49 50
000 ASUS41 KOKX 261809 RWROKX REGIONAL WEATHER ROUNDUP NATIONAL WEATHER SERVICE NEW YORK NY 200 PM EDT FRI MAY 26 2017 NOTE: "FAIR" INDICATES FEW OR NO CLOUDS BELOW 12,000 FEET WITH NO SIGNIFICANT WEATHER AND/OR OBSTRUCTIONS TO VISIBILITY. NYZ071-072-176-178-NJZ106-104-261900- NEW YORK CITY METRO AREA CITY SKY/WX TMP DP RH WIND PRES REMARKS Central Park PTSUNNY 73 55 53 W8G20 29.62R Wall St Helipt CLOUDY 73 55 53 W14 29.61R Bronx Bot Gard N/A 75 52 43 W18 29.61S LaGuardia APRT PTSUNNY 76 53 44 W15G24 29.58R Kennedy INTL PTSUNNY 76 58 53 W20G25 29.60R Breezy Point N/A 68 N/A N/A W10G16 N/A Newark/Liberty PTSUNNY 74 56 53 W16G22 29.60R Teterboro CLOUDY 74 55 51 W13G23 29.58R $$ NYZ177-179-078>081-261900- LONG ISLAND NEW YORK CITY SKY/WX TMP DP RH WIND PRES REMARKS Jones Beach N/A 66 N/A N/A W13G21 N/A Matinecock PT N/A 82 N/A N/A W13 N/A Farmingdale PTSUNNY 75 56 51 W18G25 29.58S MacArthur/ISP PTSUNNY 71 58 63 NW14 29.58S Shirley CLOUDY 70 60 70 W13 29.60R Mt Sinai Harb N/A 68 N/A N/A W6 N/A Westhampton CLOUDY 65 58 78 SW6 29.61R East Hampton CLOUDY 64 55 71 W13 29.59S Montauk N/A 62 54 74 W8 29.61R $$ NYZ052-065-067-261900- HUDSON VALLEY CITY SKY/WX TMP DP RH WIND PRES REMARKS White Plains PTSUNNY 72 55 55 NW17G23 29.59R Larchmont Harb N/A 72 N/A N/A W16G24 N/A Croton O-T Hud N/A 68 N/A N/A W14 N/A Newburgh PTSUNNY 68 59 73 NW12G30 29.61R Montgomery PTSUNNY 71 54 54 W12G21 29.60R Poughkeepsie CLOUDY 67 58 72 NW3 29.58R Albany CLOUDY 58 55 90 E7 29.58S $$ NJZ001-105-106-008-010-013-015-019>022-104-261900- NEW JERSEY CITY SKY/WX TMP DP RH WIND PRES REMARKS Newark/Liberty PTSUNNY 74 56 53 W16G22 29.60R Teterboro CLOUDY 74 55 51 W13G23 29.58R Caldwell CLOUDY 74 53 48 NW13 29.62R Somerville MOSUNNY 74 57 55 VRB7G21 29.61R Linden MOCLDY 74 56 51 W24 29.60S Perth Amboy N/A 70 N/A N/A W22G31 N/A Sussex CLOUDY 69 54 58 W9 29.64R Andover N/A 68 53 58 VRB6 29.63R Trenton CLOUDY 71 57 61 W10G22 29.64R Millville CLOUDY 73 59 61 W15G25 29.69S Atlantic City MOSUNNY 75 56 51 W17G29 29.66S Wrightstown PTSUNNY 73 58 57 W15G23 29.62R Toms River CLOUDY 75 58 55 W15G23 29.64S Belmar PTSUNNY 72 56 57 W15G22 29.64R $$ PAZ047>061-062-071-261900- EASTERN PENNSYLVANIA CITY SKY/WX TMP DP RH WIND PRES REMARKS Philadelphia PTSUNNY 76 56 49 W18 29.66S Allentown PTSUNNY 72 56 57 W15G24 29.65S Scranton CLOUDY 68 54 60 NW14 29.66S $$ CTZ002-004>006-009-010-012-RIZ004-006-007-MAZ004-011-015-261900- SOUTHERN NEW ENGLAND IN CT CITY SKY/WX TMP DP RH WIND PRES REMARKS Bradley INTL CLOUDY 60 56 86 CALM 29.58R Hartford CLOUDY 62 54 74 NW3 29.59R Danbury CLOUDY 70 59 68 N9G16 29.60R Wtrbury/Oxford NOT AVBL Bridgeport CLOUDY 68 59 73 CALM 29.58S Meriden PTSUNNY 66 55 67 NW9 29.58S New Haven CLOUDY 61 55 81 S7 29.59R Chester MOCLDY 64 55 72 NW6G13 29.59R Groton CLOUDY 59 55 87 SW5 29.59R Wilimantic CLOUDY 57 54 89 W3 29.60R FOG IN RI CITY SKY/WX TMP DP RH WIND PRES REMARKS Providence LGT RAIN 57 53 86 NW8 29.59R Block Island CLOUDY 58 52 80 W14 29.60R Westerly CLOUDY 59 54 83 SW7 29.59R IN MA CITY SKY/WX TMP DP RH WIND PRES REMARKS Boston NOT AVBL Worcester LGT RAIN 53 49 86 W8 29.57R Westfield CLOUDY 59 56 89 CALM 29.58R FOG Provincetown CLOUDY 52 49 89 NW20G26 29.53R Nantucket CLOUDY 56 48 74 W20G25 29.54R $$ ANZ330-335-338-340-345-350-353-355-261900- COASTAL MARINE OBSERVATIONS STATION/POSITION TIME SKY/WX TEMP WIND PRES VSBY WAVE AIR SEA DIR/SP/G HT/PER (UTC) (F) (DEG/KT/KT) (MB) (MI) (FT/S) NY HARB ENTRANCE 1650 62 57 260/ 8/ 10 1002.6 6/ 8 20 S FIRE ISLAND 1650 58 55 220/ 6/ 10 1002.3 6/ 9 GREAT SOUTH BAY 1730 64 63 240/ 12/ 12 N/A 23 SSW MONTAUK P 1650 55 54 1002.6 6/ 9 15 E BARNEGAT LI 1700 59 N/A 6/ 8 HUDSON CANYON 1650 58 54 260/ 16/ 17 1003.5 7/ 8 KINGS POINT 1742 69 58 310/ 11/ 16 1001.5 EXECUTION ROCKS 1745 71 N/A CENTRAL LI SOUND 1653 56 240/ 6/ 8 N/A 1/ 3 EASTERN LI SOUND NOT AVBL ROBBINS REEF 1742 71 270/ 17/ 20 1002.6 $$ >>>>>>>>>>>>>>>>>>>>>>>>>>>> KEY <<<<<<<<<<<<<<<<<<<<<<<<<<< > < > SKY/WX - Sky Condition/Present Weather < > TMP - Temperature in Fahrenheit < > DP - Dew Point in Fahrenheit < > RH - Relative Humidity in Percent < > WIND - Direction (from) and Speed in MPH < > PRES - Mean Sea Level Pressure (inches of Hg) < > WCI - Wind Chill Index < > VSB - VISIBILITY IN MILES < > HX - HEAT INDEX < > TC - TEMPERATURE IN CELSIUS < > VRB - VARIABLE WIND DIRECTION < > < >>>>>>>>>>>>>>>>>>>>>>>>>>>> KEY <<<<<<<<<<<<<<<<<<<<<<<<<<<

USA.gov is the U.S. government's official web portal to all federal, state and local government web resources and services.